Meteo pe oră la

Astăzi, 5 Martie, Vineri

Timp Temperatura Precipitaţii Vânt Presiune Umiditate
00:00 +21°C° 0 mm 2 m/s 761 mmHg 90%
01:00 +21°C° 0 mm 2 m/s 761 mmHg 91%
02:00 +20°C° 0 mm 2 m/s 760 mmHg 92%
03:00 +21°C° 0 mm 1 m/s 760 mmHg 93%
04:00 +20°C° 0 mm 2 m/s 760 mmHg 92%
05:00 +20°C° 0 mm 2 m/s 760 mmHg 92%
06:00 +20°C° 0 mm 2 m/s 760 mmHg 92%
07:00 +23°C° 0 mm 2 m/s 760 mmHg 81%
08:00 +26°C° 0 mm 2 m/s 760 mmHg 70%
09:00 +28°C° 0 mm 2 m/s 761 mmHg 59%
10:00 +30°C° 0 mm 2 m/s 760 mmHg 54%
11:00 +33°C° 0 mm 3 m/s 760 mmHg 49%
12:00 +35°C° 0 mm 3 m/s 759 mmHg 43%
13:00 +35°C° 0 mm 3 m/s 758 mmHg 43%
14:00 +35°C° 0 mm 3 m/s 757 mmHg 43%
15:00 +35°C° 0 mm 4 m/s 757 mmHg 43%
16:00 +32°C° 0 mm 4 m/s 757 mmHg 52%
17:00 +29°C° 0 mm 5 m/s 757 mmHg 61%
18:00 +27°C° 0 mm 5 m/s 758 mmHg 69%
19:00 +26°C° 0 mm 5 m/s 758 mmHg 71%
20:00 +26°C° 0 mm 5 m/s 758 mmHg 73%
21:00 +25°C° 0 mm 4 m/s 759 mmHg 75%
22:00 +23°C° 0 mm 4 m/s 759 mmHg 79%
23:00 +24°C° 0 mm 3 m/s 759 mmHg 84%

Mâine, 6 Martie, Sâmbătă

Timp Temperatura Precipitaţii Vânt Presiune Umiditate
00:00 +23°C° 0 mm 2 m/s 759 mmHg 88%
01:00 +23°C° 0 mm 2 m/s 759 mmHg 89%
02:00 +23°C° 0 mm 2 m/s 758 mmHg 89%
03:00 +23°C° 0 mm 1 m/s 758 mmHg 90%
04:00 +23°C° 0 mm 1 m/s 758 mmHg 89%
05:00 +23°C° 0 mm 1 m/s 759 mmHg 89%
06:00 +24°C° 0 mm 1 m/s 759 mmHg 88%
07:00 +25°C° 0 mm 1 m/s 760 mmHg 83%
08:00 +26°C° 0 mm 2 m/s 760 mmHg 77%
09:00 +28°C° 0 mm 2 m/s 760 mmHg 71%
10:00 +29°C° 0.3 mm 2 m/s 760 mmHg 67%
11:00 +30°C° 0.3 mm 2 m/s 760 mmHg 62%
12:00 +31°C° 0.3 mm 3 m/s 760 mmHg 58%
13:00 +30°C° 0.7 mm 3 m/s 759 mmHg 63%
14:00 +29°C° 0.7 mm 4 m/s 759 mmHg 68%
15:00 +28°C° 0.7 mm 5 m/s 758 mmHg 74%
16:00 +27°C° 0 mm 4 m/s 759 mmHg 74%
17:00 +26°C° 0 mm 4 m/s 759 mmHg 75%
18:00 +26°C° 0 mm 3 m/s 759 mmHg 75%
19:00 +25°C° 0 mm 3 m/s 760 mmHg 78%
20:00 +24°C° 0 mm 3 m/s 761 mmHg 80%
21:00 +23°C° 0 mm 2 m/s 762 mmHg 83%
22:00 +22°C° 0 mm 3 m/s 762 mmHg 86%
23:00 +22°C° 0 mm 3 m/s 762 mmHg 88%

Poimâine, 7 Martie, Duminică

Timp Temperatura Precipitaţii Vânt Presiune Umiditate
00:00 +21°C° 0 mm 3 m/s 762 mmHg 91%
01:00 +21°C° 0 mm 3 m/s 761 mmHg 90%
02:00 +21°C° 0 mm 3 m/s 761 mmHg 88%
03:00 +21°C° 0 mm 3 m/s 761 mmHg 86%
04:00 +21°C° 0 mm 3 m/s 761 mmHg 87%
05:00 +20°C° 0 mm 3 m/s 762 mmHg 87%
06:00 +20°C° 0 mm 2 m/s 762 mmHg 88%
07:00 +23°C° 0 mm 2 m/s 762 mmHg 76%
08:00 +25°C° 0 mm 2 m/s 763 mmHg 65%
09:00 +27°C° 0 mm 2 m/s 764 mmHg 53%
10:00 +28°C° 0 mm 3 m/s 763 mmHg 49%
11:00 +29°C° 0 mm 3 m/s 763 mmHg 44%
12:00 +30°C° 0 mm 3 m/s 763 mmHg 40%
13:00 +30°C° 0 mm 3 m/s 762 mmHg 41%
14:00 +29°C° 0 mm 3 m/s 762 mmHg 41%
15:00 +29°C° 0 mm 4 m/s 761 mmHg 42%
16:00 +27°C° 0 mm 3 m/s 762 mmHg 49%
17:00 +26°C° 0 mm 3 m/s 762 mmHg 56%
18:00 +24°C° 0 mm 3 m/s 762 mmHg 62%
19:00 +22°C° 0 mm 3 m/s 763 mmHg 69%
20:00 +21°C° 0 mm 3 m/s 764 mmHg 75%
21:00 +20°C° 0 mm 3 m/s 764 mmHg 81%
22:00 +20°C° 0 mm 3 m/s 764 mmHg 84%
23:00 +20°C° 0 mm 3 m/s 764 mmHg 87%

8 Martie, Luni

Timp Temperatura Precipitaţii Vânt Presiune Umiditate
00:00 +20°C° 0 mm 3 m/s 764 mmHg 91%
01:00 +19°C° 0.1 mm 3 m/s 764 mmHg 92%
02:00 +19°C° 0.1 mm 3 m/s 764 mmHg 94%
03:00 +19°C° 0.1 mm 3 m/s 763 mmHg 96%
04:00 +19°C° 0.2 mm 3 m/s 764 mmHg 95%
05:00 +20°C° 0.2 mm 3 m/s 764 mmHg 95%
06:00 +20°C° 0.2 mm 3 m/s 764 mmHg 94%
07:00 +22°C° 0.2 mm 4 m/s 765 mmHg 85%
08:00 +25°C° 0.2 mm 5 m/s 765 mmHg 76%
09:00 +27°C° 0.2 mm 5 m/s 766 mmHg 67%
10:00 +28°C° 0.2 mm 5 m/s 766 mmHg 62%
11:00 +29°C° 0.2 mm 5 m/s 765 mmHg 58%
12:00 +30°C° 0.2 mm 5 m/s 765 mmHg 54%
13:00 +30°C° 0.1 mm 5 m/s 765 mmHg 52%
14:00 +30°C° 0.1 mm 5 m/s 764 mmHg 51%
15:00 +29°C° 0.1 mm 5 m/s 764 mmHg 50%
16:00 +28°C° 0 mm 5 m/s 764 mmHg 54%
17:00 +27°C° 0 mm 5 m/s 764 mmHg 57%
18:00 +26°C° 0 mm 4 m/s 764 mmHg 60%
19:00 +25°C° 0 mm 4 m/s 765 mmHg 67%
20:00 +23°C° 0 mm 4 m/s 765 mmHg 73%
21:00 +24°C° 0 mm 3 m/s 766 mmHg 80%
22:00 +22°C° 0 mm 3 m/s 765 mmHg 82%
23:00 +21°C° 0 mm 3 m/s 765 mmHg 84%

9 Martie, Marţi

Timp Temperatura Precipitaţii Vânt Presiune Umiditate
00:00 +21°C° 0 mm 3 m/s 765 mmHg 86%
01:00 +20°C° 0 mm 3 m/s 765 mmHg 87%
02:00 +20°C° 0 mm 3 m/s 765 mmHg 88%
03:00 +19°C° 0 mm 3 m/s 765 mmHg 89%
04:00 +20°C° 0 mm 3 m/s 765 mmHg 90%
05:00 +20°C° 0 mm 4 m/s 765 mmHg 90%
06:00 +20°C° 0 mm 4 m/s 765 mmHg 90%
07:00 +22°C° 0 mm 4 m/s 766 mmHg 80%
08:00 +26°C° 0 mm 5 m/s 766 mmHg 70%
09:00 +28°C° 0 mm 5 m/s 767 mmHg 60%
10:00 +29°C° 0.2 mm 6 m/s 766 mmHg 56%
11:00 +30°C° 0.2 mm 6 m/s 766 mmHg 52%
12:00 +32°C° 0.2 mm 6 m/s 766 mmHg 49%
13:00 +32°C° 0.2 mm 6 m/s 765 mmHg 50%
14:00 +30°C° 0.2 mm 6 m/s 764 mmHg 51%
15:00 +30°C° 0.2 mm 6 m/s 764 mmHg 52%
16:00 +28°C° 0 mm 6 m/s 764 mmHg 54%
17:00 +27°C° 0 mm 6 m/s 764 mmHg 57%
18:00 +26°C° 0 mm 6 m/s 764 mmHg 60%
19:00 +24°C° 0 mm 6 m/s 765 mmHg 65%
20:00 +23°C° 0 mm 5 m/s 765 mmHg 70%
21:00 +22°C° 0 mm 5 m/s 766 mmHg 74%
22:00 +21°C° 0 mm 4 m/s 766 mmHg 79%
23:00 +20°C° 0 mm 4 m/s 766 mmHg 84%

10 Martie, Miercuri

Timp Temperatura Precipitaţii Vânt Presiune Umiditate
00:00 +19°C° 0 mm 3 m/s 765 mmHg 89%
01:00 +19°C° 0 mm 3 m/s 765 mmHg 91%
02:00 +18°C° 0 mm 3 m/s 765 mmHg 93%
03:00 +18°C° 0 mm 3 m/s 764 mmHg 96%
04:00 +18°C° 0 mm 3 m/s 764 mmHg 94%
05:00 +18°C° 0 mm 3 m/s 765 mmHg 93%
06:00 +18°C° 0 mm 3 m/s 765 mmHg 91%
07:00 +21°C° 0 mm 4 m/s 765 mmHg 80%
08:00 +25°C° 0 mm 4 m/s 765 mmHg 69%
09:00 +27°C° 0 mm 5 m/s 766 mmHg 59%
10:00 +29°C° 0 mm 5 m/s 765 mmHg 53%
11:00 +30°C° 0 mm 5 m/s 765 mmHg 48%
12:00 +32°C° 0 mm 5 m/s 765 mmHg 43%
13:00 +33°C° 0 mm 5 m/s 764 mmHg 42%
14:00 +33°C° 0 mm 6 m/s 763 mmHg 40%
15:00 +33°C° 0 mm 6 m/s 762 mmHg 39%
16:00 +32°C° 0 mm 6 m/s 762 mmHg 43%
17:00 +29°C° 0 mm 5 m/s 762 mmHg 47%
18:00 +28°C° 0 mm 5 m/s 763 mmHg 52%
19:00 +27°C° 0 mm 5 m/s 763 mmHg 55%
20:00 +26°C° 0 mm 5 m/s 764 mmHg 59%
21:00 +25°C° 0 mm 5 m/s 764 mmHg 62%
22:00 +23°C° 0 mm 5 m/s 764 mmHg 68%
23:00 +22°C° 0 mm 4 m/s 764 mmHg 74%
Arată mai mult

Formular de consimțământ

Meteoprog și furnizorii noștri de servicii pot stoca și accesa date personale, precum cookies, identificatori de dispozitiv sau alte tehnologii similare pe dispozitivul dumneavoastră și procesa astfel de date pentru a personaliza conținutul și reclamele, dar și pentru a oferi caracteristici de social media și pentru a analiza traficul.

  • Stocarea și/sau accesarea informațiilor pe dispozitivul dumneavoastră

    Cookies, identificatori de dispozitiv sau alte informații pot fi stocate sau accesate pe dispozitiv în scopurile indicate mai sus.

  • Reclame și conținut personalizat, evaluarea reclamelor și a conținutului, informații despre audiențe și dezvoltarea produselor

    Reclamele și conținutul pot fi personalizate pe baza unui profil. Pot fi adăugate date suplimentare pentru a personaliza mai bine reclamele și conținutul. Performanța reclamelor și conținutului poate fi măsurată. Pot fi obținute informații despre utilizatorii care au văzut reclamele și conținutul. Aceste date pot fi utilizate pentru a dezvolta sau îmbunătăți experiența utilizatorilor, sistemele și software-ul.

Dând clic pe ‘Sunt de acord’, permiteți utilizarea cookie-urilor menționate, a identificatorilor de dispozitiv, balizelor web sau altor tehnologii similare. Setările pot fi modificate din browser-ul dispozitivului dumneavoastră.

În anumite scopuri, interesele legitime pot prima asupra consimțământului. Puteți citi mai multe informații în acest sens în Politica privind Confidențialitatea Datelor și Cookie.